📊 Raw Sensor Data
Showing records 47826 to 47850 of 85,092 total
| ID | Distance (ft) | Battery V | Battery A | Int Temp (°F) | Int Humid (%) | Ext Temp (°F) | Solar V | RSSI | SNR | Time Stamp |
|---|---|---|---|---|---|---|---|---|---|---|
| 37279 | -- | 3.79 | -5 | 54 | 43 | 56 | 0.00 | -75 | 8 | 04/08/2025 10:30 PM |
| 37278 | -- | 3.78 | -5 | 55 | 43 | 55 | 0.00 | -76 | 8 | 04/08/2025 10:15 PM |
| 37277 | -- | 3.78 | -5 | 56 | 43 | 57 | 0.00 | -76 | 8 | 04/08/2025 10:00 PM |
| 37276 | -- | 3.78 | -5 | 57 | 43 | 58 | 0.00 | -76 | 8 | 04/08/2025 09:45 PM |
| 37275 | 15.3 | 3.80 | -5 | 57 | 44 | 58 | 0.00 | -77 | 8 | 04/08/2025 09:30 PM |
| 37274 | 15.4 | 3.86 | -5 | 58 | 44 | 59 | 0.00 | -76 | 8 | 04/08/2025 09:15 PM |
| 37273 | -- | 3.86 | -5 | 59 | 44 | 60 | 0.00 | -76 | 8 | 04/08/2025 09:00 PM |
| 37272 | -- | 3.86 | -5 | 61 | 46 | 61 | 0.00 | -76 | 7 | 04/08/2025 08:30 PM |
| 37271 | -- | 3.86 | -5 | 62 | 47 | 62 | 0.00 | -76 | 8 | 04/08/2025 08:16 PM |
| 37270 | -- | 3.86 | -5 | 63 | 48 | 63 | 0.00 | -76 | 8 | 04/08/2025 08:00 PM |
| 37269 | -- | 3.80 | -5 | 68 | 50 | 66 | 4.50 | -76 | 7 | 04/08/2025 07:30 PM |
| 37268 | -- | 3.89 | 0 | 73 | 48 | 68 | 4.50 | -77 | 8 | 04/08/2025 07:15 PM |
| 37267 | -- | 3.92 | -7 | 77 | 48 | 70 | 4.50 | -75 | 8 | 04/08/2025 07:00 PM |
| 37266 | -- | 3.88 | 11 | 80 | 47 | 72 | 4.50 | -75 | 8 | 04/08/2025 06:46 PM |
| 37265 | -- | 3.93 | 47 | 83 | 45 | 72 | 4.50 | -75 | 8 | 04/08/2025 06:30 PM |
| 37264 | -- | 3.84 | 0 | 85 | 44 | 73 | 5.10 | -75 | 8 | 04/08/2025 06:16 PM |
| 37263 | -- | 3.98 | 5 | 86 | 44 | 76 | 5.10 | -75 | 8 | 04/08/2025 06:01 PM |
| 37262 | -- | 3.84 | 0 | 88 | 42 | 77 | 5.10 | -75 | 9 | 04/08/2025 05:46 PM |
| 37261 | 15.6 | 4.07 | 5 | 87 | 42 | 76 | 5.10 | -75 | 8 | 04/08/2025 05:30 PM |
| 37260 | -- | 3.84 | 0 | 86 | 42 | 75 | 5.10 | -75 | 8 | 04/08/2025 05:15 PM |
| 37259 | -- | 3.84 | 0 | 87 | 41 | 75 | 5.10 | -75 | 9 | 04/08/2025 05:00 PM |
| 37258 | -- | 3.84 | 0 | 86 | 41 | 73 | 5.10 | -75 | 8 | 04/08/2025 04:45 PM |
| 37257 | -- | 3.94 | 6 | 86 | 41 | 73 | 5.10 | -76 | 9 | 04/08/2025 04:30 PM |
| 37256 | -- | 3.83 | 0 | 87 | 39 | 75 | 5.10 | -75 | 8 | 04/08/2025 04:15 PM |
| 37255 | -- | 3.83 | 0 | 87 | 39 | 74 | 5.10 | -74 | 8 | 04/08/2025 04:00 PM |